This is the latest recevied weather packets stored in our database for station/object IU2EVW-13. If no packets are shown the sender has not sent any weather packets the latest 10 day(s).
| Time | Temp. | Humidity | Pressure | Rain* | Wind** | Luminosity | Snow |
|---|---|---|---|---|---|---|---|
| 1777489185 | 12.22° C | 76% | 1020 hPa | - | - | - | - |
| 1777487983 | 12.78° C | 68% | 1019.7 hPa | - | - | - | - |
| 1777486782 | 13.33° C | 68% | 1019.4 hPa | - | - | - | - |
| 1777485580 | 12.78° C | 70% | 1019.2 hPa | - | - | - | - |
| 1777484379 | 13.33° C | 70% | 1018.9 hPa | - | - | - | - |
| 1777483178 | 13.33° C | 73% | 1018.7 hPa | - | - | - | - |
| 1777481976 | 13.89° C | 71% | 1018.6 hPa | - | - | - | - |
| 1777480775 | 14.44° C | 70% | 1018.6 hPa | - | - | - | - |
| 1777479573 | 14.44° C | 68% | 1018.7 hPa | - | - | - | - |
| 1777478372 | 14.44° C | 68% | 1018.8 hPa | - | - | - | - |
| 1777477171 | 14.44° C | 67% | 1019 hPa | - | - | - | - |
| 1777475969 | 14.44° C | 66% | 1019.1 hPa | - | - | - | - |
| 1777474768 | 13.89° C | 66% | 1019.2 hPa | - | - | - | - |
| 1777473567 | 13.89° C | 66% | 1019.3 hPa | - | - | - | - |
| 1777472364 | 13.89° C | 67% | 1019.4 hPa | - | - | - | - |
| 1777471163 | 15° C | 64% | 1019.4 hPa | - | - | - | - |
| 1777469961 | 15.56° C | 65% | 1019.5 hPa | - | - | - | - |
| 1777468760 | 15.56° C | 68% | 1019.6 hPa | - | - | - | - |
| 1777467558 | 14.44° C | 69% | 1019.9 hPa | - | - | - | - |
| 1777466357 | 15° C | 71% | 1020 hPa | - | - | - | - |
| 1777465155 | 14.44° C | 73% | 1020.1 hPa | - | - | - | - |
| 1777463954 | 14.44° C | 75% | 1020 hPa | - | - | - | - |
| 1777462753 | 14.44° C | 74% | 1020 hPa | - | - | - | - |
| 1777461551 | 13.89° C | 78% | 1020.3 hPa | - | - | - | - |
| 1777460349 | 13.33° C | 77% | 1020.2 hPa | - | - | - | - |
* Rain since midnight (hover to see other rain measurements)
** Current wind speed in m/s (hover to see current wind gust speed)